sat.trackr.live / text

‹ back to catalog

STARLINK-34198

NORAD 64388 · 2025-127U

PAYLOAD ACTIVE UNKNOWN

§ Identity

Operator
Country
US
Launch date
2025-06-13
Launch site
AFETR
Launch vehicle
Mass (kg)
RCS (m²)

Purposes: comms

External: N2YO · Heavens-Above · Gunter

§ Orbital elements

Epoch: 2026-05-24T22:41:44.464128Z

Period
94.27 min
Inclination
42.9996°
Eccentricity
0.0000902
Mean motion
15.27592118 rev/d
Perigee alt
482.4 km
Apogee alt
483.6 km
Semi-major
6,861.1 km
B*
5.2659e-4
RAAN
108.7647°
Arg perigee
257.4466°
Mean anomaly
102.6285°
Rev number
5,413

§ Raw data

STARLINK-341981 64388U 25127U   26144.94565352  .00014262  00000+0  52659-3 0  99962 64388  42.9996 108.7647 0000902 257.4466 102.6285 15.27592118 54136

JSON: /api/v1/satellites/64388 · /tle

For live sub-satellite position, see the globe view (requires WebGL).

§ Visibility from observer

Set your observer location to see the next 7 days of passes ≥ 10°. The values pass through the URL so the page stays shareable.

No JS? Fill the form by hand. The geolocation button needs JavaScript.